CW9520 Weather Reports


time (UTC)temp
C
wind
direction
speed
KPH
gust
KPH
rain 1hr
cm
rain 24hr
cm
rain mn
cm
humidity
%
barometer
mb
20260507015517 21 301 4.8 11.3 0.00 0.00 0.00 58 1017.1
20260507014516 21 312 4.8 16.1 0.00 0.00 0.00 57 1017.1
20260507013516 22 302 4.8 12.9 0.00 0.00 0.00 55 1017.0
20260507012516 22 323 3.2 12.9 0.00 0.00 0.00 56 1017.0
20260507011517 22 304 6.4 16.1 0.00 0.00 0.00 56 1016.9
20260507010517 22 309 4.8 16.1 0.00 0.00 0.00 54 1017.0
20260507005516 22 317 3.2 22.5 0.00 0.00 0.00 53 1016.9
20260507004517 23 294 3.2 12.9 0.00 0.00 0.00 53 1016.8
20260507003557 23 335 4.8 16.1 0.00 0.00 0.00 52 1016.7
20260507002516 23 312 4.8 14.5 0.00 0.00 0.00 52 1016.8
20260507001516 23 302 4.8 17.7 0.00 0.00 0.00 51 1016.8
20260507000516 23 320 6.4 17.7 0.00 0.00 0.00 51 1016.8
20260506235516 24 283 4.8 16.1 0.00 0.00 0.00 50 1016.8
20260506234516 24 323 6.4 16.1 0.00 0.00 0.00 50 1016.8
20260506233516 24 331 4.8 12.9 0.00 0.00 0.00 50 1016.8
20260506232516 24 315 4.8 14.5 0.00 0.00 0.00 50 1016.8
20260506231515 24 274 3.2 12.9 0.00 0.00 0.00 49 1016.8
20260506230536 24 311 4.8 14.5 0.00 0.00 0.00 49 1017.0
20260506225517 24 329 4.8 17.7 0.00 0.00 0.00 48 1017.0
20260506224536 24 288 3.2 14.5 0.00 0.00 0.00 49 1017.1
20260506223516 24 247 6.4 16.1 0.00 0.00 0.00 48 1017.2
20260506222516 24 289 6.4 14.5 0.00 0.00 0.00 49 1017.3
20260506221516 23 301 3.2 16.1 0.00 0.00 0.00 50 1017.4
20260506220536 23 312 4.8 12.9 0.00 0.00 0.00 51 1017.6
20260506215537 23 351 4.8 12.9 0.00 0.00 0.00 49 1017.7
20260506214516 23 342 4.8 14.5 0.00 0.00 0.00 51 1017.9
20260506213515 22 275 3.2 11.3 0.00 0.00 0.00 51 1018.0
20260506212516 22 306 4.8 12.9 0.00 0.00 0.00 52 1018.2
20260506211536 22 311 3.2 12.9 0.00 0.00 0.00 51 1018.3
20260506210516 22 5 3.2 14.5 0.00 0.00 0.00 52 1018.4
20260506205515 22 297 3.2 12.9 0.00 0.00 0.00 52 1018.5
20260506204516 22 270 3.2 12.9 0.00 0.00 0.00 54 1018.5
20260506203516 21 288 3.2 14.5 0.00 0.00 0.00 54 1018.7
20260506202516 21 299 4.8 14.5 0.00 0.00 0.00 55 1018.8
20260506201515 21 295 3.2 11.3 0.00 0.00 0.00 55 1018.8
20260506200515 21 34 4.8 12.9 0.00 0.00 0.00 56 1018.9
20260506195516 21 252 3.2 11.3 0.00 0.00 0.00 57 1018.9
20260506194515 20 24 4.8 9.7 0.00 0.00 0.00 57 1019.0
20260506193516 20 337 4.8 11.3 0.00 0.00 0.00 58 1019.1
20260506192516 20 278 3.2 8.0 0.00 0.00 0.00 59 1019.3
20260506191515 20 291 4.8 12.9 0.00 0.00 0.00 59 1019.4
20260506190516 19 73 1.6 8.0 0.00 0.00 0.00 60 1019.4
20260506185517 19 306 3.2 14.5 0.00 0.00 0.00 61 1019.5
20260506184516 19 298 4.8 11.3 0.00 0.00 0.00 61 1019.5
20260506183516 18 310 4.8 14.5 0.00 0.00 0.00 63 1019.6
20260506182516 18 346 3.2 11.3 0.00 0.00 0.00 63 1019.7
20260506181515 18 310 3.2 11.3 0.00 0.00 0.00 65 1019.8
20260506180517 18 304 3.2 12.9 0.00 0.00 0.00 65 1019.7
20260506175536 17 247 1.6 8.0 0.00 0.00 0.00 65 1019.8
20260506174516 18 279 3.2 8.0 0.00 0.00 0.00 65 1019.8
20260506173515 17 292 3.2 11.3 0.00 0.00 0.00 66 1019.8
20260506172517 17 238 4.8 12.9 0.00 0.00 0.00 66 1019.8
20260506171616 17 337 3.2 12.9 0.00 0.00 0.00 67 1019.8
20260506170515 17 355 3.2 8.0 0.00 0.00 0.00 68 1019.8
20260506165515 16 242 1.6 6.4 0.00 0.00 0.00 69 1019.8
20260506164516 16 298 3.2 8.0 0.00 0.00 0.00 69 1019.9
20260506163515 16 281 3.2 6.4 0.00 0.00 0.00 71 1019.9
20260506162515 15 281 1.6 6.4 0.00 0.00 0.00 73 1020.0
20260506161516 15 303 3.2 8.0 0.00 0.00 0.00 73 1020.1
20260506160515 15 341 3.2 8.0 0.00 0.00 0.00 74 1020.0
20260506155535 15 337 1.6 8.0 0.00 0.00 0.00 75 1020.0
20260506154536 15 253 1.6 4.8 0.00 0.00 0.00 76 1020.0
20260506153556 14 287 1.6 6.4 0.00 0.00 0.00 76 1020.0
20260506152536 14 223 0.0 3.2 0.00 0.00 0.00 78 1020.0
20260506151537 14 230 1.6 4.8 0.00 0.00 0.00 78 1020.0
20260506150515 13 343 1.6 4.8 0.00 0.00 0.00 78 1020.0
20260506145516 13 352 1.6 6.4 0.00 0.00 0.00 78 1020.1
20260506144535 13 0.0 0.0 0.00 0.00 0.00 79 1020.1
20260506143515 13 0.0 3.2 0.00 0.00 0.00 79 1020.1
20260506142516 13 0.0 0.0 0.00 0.00 0.00 79 1020.0
20260506141515 13 296 0.0 6.4 0.00 0.00 0.00 79 1020.0
20260506140515 13 329 0.0 4.8 0.00 0.00 0.00 78 1019.8
20260506135516 13 336 0.0 6.4 0.00 0.00 0.00 79 1019.6
20260506134515 13 301 0.0 3.2 0.00 0.00 0.00 79 1019.4
20260506133516 13 0.0 0.0 0.00 0.00 0.00 79 1019.3
20260506132516 13 306 0.0 1.6 0.00 0.00 0.00 79 1019.2
20260506131516 13 0.0 1.6 0.00 0.00 0.00 79 1019.1
20260506130515 13 0.0 0.0 0.00 0.00 0.00 79 1019.0
20260506125516 13 0.0 0.0 0.00 0.00 0.00 79 1018.9
20260506124516 13 306 0.0 3.2 0.00 0.00 0.00 79 1018.9
20260506123515 13 306 0.0 1.6 0.00 0.00 0.00 79 1018.9
20260506122516 13 0.0 0.0 0.00 0.00 0.00 79 1018.9
20260506121515 13 0.0 0.0 0.00 0.00 0.00 80 1018.9
20260506120515 13 0.0 0.0 0.00 0.00 0.00 81 1018.8
20260506115515 13 0.0 0.0 0.00 0.00 0.00 81 1018.7
20260506114516 13 0.0 0.0 0.00 0.00 0.00 80 1018.6
20260506113515 13 0.0 0.0 0.00 0.00 0.00 80 1018.5
20260506112515 13 0.0 0.0 0.00 0.00 0.00 80 1018.5
20260506111515 13 0.0 0.0 0.00 0.00 0.00 80 1018.5
20260506110516 13 0.0 0.0 0.00 0.00 0.00 80 1018.5
20260506105515 13 0.0 0.0 0.00 0.00 0.00 79 1018.5
20260506104515 13 0.0 0.0 0.00 0.00 0.00 79 1018.4
20260506103515 13 0.0 0.0 0.00 0.00 0.00 79 1018.4
20260506102536 13 0.0 0.0 0.00 0.00 0.00 79 1018.4
20260506101516 13 0.0 0.0 0.00 0.00 0.00 79 1018.4
20260506100515 13 0.0 0.0 0.00 0.00 0.00 78 1018.4
20260506095536 13 0.0 0.0 0.00 0.00 0.00 78 1018.4
20260506094515 13 0.0 0.0 0.00 0.00 0.00 78 1018.4
20260506093515 13 306 0.0 3.2 0.00 0.00 0.00 78 1018.5
20260506092515 13 306 0.0 3.2 0.00 0.00 0.00 78 1018.6
20260506091536 13 306 0.0 1.6 0.00 0.00 0.00 78 1018.6
20260506090536 13 306 0.0 1.6 0.00 0.00 0.00 78 1018.6
20260506085615 13 306 0.0 1.6 0.00 0.00 0.00 78 1018.4
20260506084515 13 306 0.0 4.8 0.00 0.00 0.00 77 1018.4
20260506083636 13 309 1.6 6.4 0.00 0.00 0.00 77 1018.4
20260506082515 13 0.0 0.0 0.00 0.00 0.00 77 1018.5
20260506081515 13 0.0 0.0 0.00 0.00 0.00 77 1018.5
20260506080515 13 265 0.0 3.2 0.00 0.00 0.00 76 1018.4
20260506073516 13 299 0.0 3.2 0.00 0.00 0.00 75 1018.2
20260506072557 13 301 1.6 6.4 0.00 0.00 0.00 75 1018.1
20260506071535 13 0.0 3.2 0.00 0.00 0.00 75 1018.0
20260506070515 13 237 0.0 6.4 0.00 0.00 0.00 75 1017.9
20260506062516 14 280 1.6 4.8 0.00 0.00 0.00 74 1017.7
20260506061557 14 286 0.0 4.8 0.00 0.00 0.00 75 1017.5
20260506060517 14 326 0.0 3.2 0.00 0.00 0.00 74 1017.4
20260506050516 15 287 0.0 3.2 0.00 0.00 0.00 71 1017.1
20260506044536 15 298 1.6 4.8 0.00 0.00 0.00 70 1016.9
20260506043537 15 297 0.0 1.6 0.00 0.00 0.00 71 1016.8
20260506042517 15 297 0.0 4.8 0.00 0.00 0.00 70 1016.8
20260506041516 15 310 0.0 1.6 0.00 0.00 0.00 71 1016.6
20260506040516 15 310 1.6 4.8 0.00 0.00 0.00 70 1016.5
20260506035516 15 310 1.6 4.8 0.00 0.00 0.00 70 1016.4
20260506034516 15 301 0.0 4.8 0.00 0.00 0.00 70 1016.2
20260506033516 15 297 1.6 4.8 0.00 0.00 0.00 70 1016.0
20260506032516 15 253 1.6 4.8 0.00 0.00 0.00 70 1015.9
20260506031516 15 300 1.6 4.8 0.00 0.00 0.00 70 1015.9
20260506030515 15 299 0.0 4.8 0.00 0.00 0.00 70 1015.7
20260506025516 15 296 1.6 6.4 0.00 0.00 0.00 70 1015.5
20260506024516 16 307 1.6 6.4 0.00 0.00 0.00 70 1015.5
20260506023516 16 320 0.0 3.2 0.00 0.00 0.00 69 1015.4
20260506022515 16 302 0.0 3.2 0.00 0.00 0.00 68 1015.3
20260506021536 16 302 0.0 1.6 0.00 0.00 0.00 68 1015.2
20260506020516 16 302 0.0 3.2 0.00 0.00 0.00 68 1015.4